Time,TemperatureF,DewpointF,PressureIn,WindDirection,WindDirectionDegrees,WindSpeedMPH,WindSpeedGustMPH,Humidity,HourlyPrecipIn,Conditions,Clouds,dailyrainin,SoftwareType,DateUTC
2013-03-08 00:01:00,22.1,19.9,30.46,WNW,296,0.0,0.0,91,0.00,,---,0.00,VWS V14.01,2013-03-08 05:01:00,
2013-03-08 00:16:00,21.0,18.8,30.47,WNW,296,0.0,0.0,91,0.00,,---,0.00,VWS V14.01,2013-03-08 05:16:00,
2013-03-08 00:31:00,20.3,18.1,30.47,WNW,296,0.0,0.0,91,0.00,,---,0.00,VWS V14.01,2013-03-08 05:31:00,
2013-03-08 00:46:00,19.8,17.9,30.47,WNW,296,0.0,0.0,92,0.00,,---,0.00,VWS V14.01,2013-03-08 05:46:00,
2013-03-08 01:01:00,20.2,18.5,30.47,WNW,296,0.0,0.0,93,0.00,,---,0.00,VWS V14.01,2013-03-08 06:01:00,
2013-03-08 01:16:00,20.9,19.2,30.46,WNW,296,0.0,0.0,93,0.00,,---,0.00,VWS V14.01,2013-03-08 06:16:00,
2013-03-08 01:31:00,20.8,19.1,30.47,WNW,296,0.0,0.0,93,0.00,,---,0.00,VWS V14.01,2013-03-08 06:31:00,
2013-03-08 01:46:00,20.4,18.7,30.48,WNW,296,0.0,0.0,93,0.00,,---,0.00,VWS V14.01,2013-03-08 06:46:00,
2013-03-08 02:01:00,20.1,18.4,30.48,WNW,296,0.0,0.0,93,0.00,,---,0.00,VWS V14.01,2013-03-08 07:01:00,
2013-03-08 02:16:00,20.5,19.0,30.48,WNW,296,0.0,0.0,94,0.00,,---,0.00,VWS V14.01,2013-03-08 07:16:00,
2013-03-08 02:31:00,20.5,19.0,30.48,WNW,296,0.0,0.0,94,0.00,,---,0.00,VWS V14.01,2013-03-08 07:31:00,
2013-03-08 02:46:00,20.1,18.4,30.49,WNW,296,0.0,0.0,93,0.00,,---,0.00,VWS V14.01,2013-03-08 07:46:00,
2013-03-08 03:01:00,19.0,17.3,30.49,WNW,296,0.0,0.0,93,0.00,,---,0.00,VWS V14.01,2013-03-08 08:01:00,
2013-03-08 03:16:00,19.0,17.6,30.49,WNW,296,0.0,0.0,94,0.00,,---,0.00,VWS V14.01,2013-03-08 08:16:00,
2013-03-08 03:31:00,18.3,16.6,30.49,WNW,296,0.0,0.0,93,0.00,,---,0.00,VWS V14.01,2013-03-08 08:31:00,
2013-03-08 03:46:00,17.1,15.4,30.50,WNW,296,0.0,0.0,93,0.00,,---,0.00,VWS V14.01,2013-03-08 08:46:00,
2013-03-08 04:01:00,16.9,15.2,30.50,WNW,296,0.0,0.0,93,0.00,,---,0.00,VWS V14.01,2013-03-08 09:01:00,
2013-03-08 04:16:00,16.2,14.5,30.50,WNW,296,0.0,0.0,93,0.00,,---,0.00,VWS V14.01,2013-03-08 09:16:00,
2013-03-08 04:31:00,16.7,15.3,30.49,WNW,296,0.0,0.0,94,0.00,,---,0.00,VWS V14.01,2013-03-08 09:31:00,
2013-03-08 04:46:00,18.9,17.7,30.49,WNW,296,1.0,2.0,95,0.00,,---,0.00,VWS V14.01,2013-03-08 09:46:00,
2013-03-08 05:01:00,18.9,17.5,30.49,WNW,296,0.0,3.0,94,0.00,,---,0.00,VWS V14.01,2013-03-08 10:01:00,
2013-03-08 05:16:00,18.6,16.9,30.50,WNW,296,0.0,0.0,93,0.00,,---,0.00,VWS V14.01,2013-03-08 10:16:00,
2013-03-08 05:31:00,18.2,16.8,30.51,WNW,296,0.0,0.0,94,0.00,,---,0.00,VWS V14.01,2013-03-08 10:31:00,
2013-03-08 05:46:00,19.2,17.8,30.51,WNW,296,0.0,0.0,94,0.00,,---,0.00,VWS V14.01,2013-03-08 10:46:00,
2013-03-08 06:01:00,19.2,17.8,30.51,WNW,296,0.0,0.0,94,0.00,,---,0.00,VWS V14.01,2013-03-08 11:01:00,
2013-03-08 06:16:00,18.6,16.9,30.51,WNW,296,0.0,0.0,93,0.00,,---,0.00,VWS V14.01,2013-03-08 11:16:00,
2013-03-08 06:31:00,18.3,16.9,30.51,WNW,296,0.0,0.0,94,0.00,,---,0.00,VWS V14.01,2013-03-08 11:31:00,
2013-03-08 06:46:00,19.3,17.9,30.52,WNW,296,0.0,1.0,94,0.00,,---,0.00,VWS V14.01,2013-03-08 11:46:00,
2013-03-08 07:01:00,18.7,17.0,30.52,WNW,296,0.0,0.0,93,0.00,,---,0.00,VWS V14.01,2013-03-08 12:01:00,
2013-03-08 07:16:00,18.9,17.5,30.52,WNW,296,0.0,1.0,94,0.00,,---,0.00,VWS V14.01,2013-03-08 12:16:00,
2013-03-08 07:31:00,19.7,18.3,30.52,WNW,296,1.0,2.0,94,0.00,,---,0.00,VWS V14.01,2013-03-08 12:31:00,
2013-03-08 07:46:00,20.6,19.1,30.52,WNW,296,0.0,2.0,94,0.00,,---,0.00,VWS V14.01,2013-03-08 12:46:00,
2013-03-08 08:01:00,22.1,20.6,30.53,WNW,296,0.0,0.0,94,0.00,,---,0.00,VWS V14.01,2013-03-08 13:01:00,
2013-03-08 08:16:00,23.4,21.9,30.54,WNW,296,0.0,2.0,94,0.00,,---,0.00,VWS V14.01,2013-03-08 13:16:00,
2013-03-08 08:31:00,24.2,22.5,30.54,WNW,296,0.0,2.0,93,0.00,,---,0.00,VWS V14.01,2013-03-08 13:31:00,
2013-03-08 08:46:00,25.8,23.8,30.54,WNW,296,0.0,1.0,92,0.00,,---,0.00,VWS V14.01,2013-03-08 13:46:00,
2013-03-08 09:01:00,26.6,23.8,30.54,NNW,327,0.0,3.0,89,0.00,,---,0.00,VWS V14.01,2013-03-08 14:01:00,
2013-03-08 09:16:00,27.2,23.6,30.55,North,5,0.0,3.0,86,0.00,,---,0.00,VWS V14.01,2013-03-08 14:16:00,
2013-03-08 09:31:00,28.6,23.5,30.55,North,5,1.0,3.0,81,0.00,,---,0.00,VWS V14.01,2013-03-08 14:31:00,
2013-03-08 09:46:00,29.6,23.9,30.55,North,5,1.0,3.0,79,0.00,,---,0.00,VWS V14.01,2013-03-08 14:46:00,
2013-03-08 10:01:00,30.7,23.4,30.55,ESE,106,2.0,5.0,74,0.00,,---,0.00,VWS V14.01,2013-03-08 15:01:00,
2013-03-08 10:16:00,30.5,22.9,30.55,ESE,108,5.0,7.0,73,0.00,,---,0.00,VWS V14.01,2013-03-08 15:16:00,
2013-03-08 10:31:00,30.4,23.1,30.55,ESE,107,3.0,7.0,74,0.00,,---,0.00,VWS V14.01,2013-03-08 15:31:00,
2013-03-08 10:46:00,31.9,23.6,30.55,ESE,107,3.0,5.0,71,0.00,,---,0.00,VWS V14.01,2013-03-08 15:46:00,
2013-03-08 11:01:00,32.7,23.3,30.55,ESE,107,3.0,7.0,68,0.00,,---,0.00,VWS V14.01,2013-03-08 16:01:00,
2013-03-08 11:16:00,33.4,23.3,30.55,ESE,107,2.0,5.0,66,0.00,,---,0.00,VWS V14.01,2013-03-08 16:16:00,
2013-03-08 11:31:00,34.3,23.4,30.55,SE,128,0.0,7.0,64,0.00,,---,0.00,VWS V14.01,2013-03-08 16:31:00,
2013-03-08 11:46:00,35.6,24.3,30.54,SE,124,3.0,6.0,63,0.00,,---,0.00,VWS V14.01,2013-03-08 16:46:00,
2013-03-08 12:01:00,35.9,23.8,30.53,SE,138,2.0,7.0,61,0.00,,---,0.00,VWS V14.01,2013-03-08 17:01:00,
2013-03-08 12:16:00,35.6,23.1,30.53,SSE,161,3.0,9.0,60,0.00,,---,0.00,VWS V14.01,2013-03-08 17:16:00,
2013-03-08 12:31:00,36.7,23.3,30.53,SSE,153,2.0,6.0,58,0.00,,---,0.00,VWS V14.01,2013-03-08 17:31:00,
2013-03-08 12:46:00,36.3,23.4,30.53,SSW,207,3.0,6.0,59,0.00,,---,0.00,VWS V14.01,2013-03-08 17:46:00,
2013-03-08 13:01:00,37.3,23.5,30.52,SE,140,4.0,5.0,57,0.00,,---,0.00,VWS V14.01,2013-03-08 18:01:00,
2013-03-08 13:16:00,37.7,23.4,30.52,South,181,0.0,6.0,56,0.00,,---,0.00,VWS V14.01,2013-03-08 18:16:00,
2013-03-08 13:31:00,37.2,24.2,30.51,South,188,3.0,7.0,59,0.00,,---,0.00,VWS V14.01,2013-03-08 18:31:00,
2013-03-08 13:46:00,36.3,23.8,30.51,WSW,252,0.0,8.0,60,0.00,,---,0.00,VWS V14.01,2013-03-08 18:46:00,
2013-03-08 14:01:00,36.8,24.6,30.50,SW,215,3.0,8.0,61,0.00,,---,0.00,VWS V14.01,2013-03-08 19:01:00,
2013-03-08 14:16:00,36.5,24.0,30.50,SW,229,5.0,9.0,60,0.00,,---,0.00,VWS V14.01,2013-03-08 19:16:00,
2013-03-08 14:31:00,36.3,23.8,30.49,WSW,255,3.0,8.0,60,0.00,,---,0.00,VWS V14.01,2013-03-08 19:31:00,
2013-03-08 14:46:00,37.1,24.5,30.49,SW,221,2.0,7.0,60,0.00,,---,0.00,VWS V14.01,2013-03-08 19:46:00,
2013-03-08 15:01:00,37.7,24.7,30.49,WSW,242,0.0,7.0,59,0.00,,---,0.00,VWS V14.01,2013-03-08 20:01:00,
2013-03-08 15:16:00,38.7,22.6,30.48,SE,124,2.0,8.0,52,0.00,,---,0.00,VWS V14.01,2013-03-08 20:16:00,
2013-03-08 15:31:00,38.7,23.1,30.48,SE,135,0.0,7.0,53,0.00,,---,0.00,VWS V14.01,2013-03-08 20:31:00,
2013-03-08 15:46:00,38.2,23.0,30.47,SE,145,4.0,9.0,54,0.00,,---,0.00,VWS V14.01,2013-03-08 20:46:00,
2013-03-08 16:01:00,38.2,23.0,30.47,SE,134,4.0,8.0,54,0.00,,---,0.00,VWS V14.01,2013-03-08 21:01:00,
2013-03-08 16:16:00,37.9,23.2,30.47,SE,143,5.0,10.0,55,0.00,,---,0.00,VWS V14.01,2013-03-08 21:16:00,
2013-03-08 16:31:00,37.5,23.2,30.46,East,98,0.0,9.0,56,0.00,,---,0.00,VWS V14.01,2013-03-08 21:31:00,
2013-03-08 16:46:00,37.6,23.8,30.46,SE,140,7.0,9.0,57,0.00,,---,0.00,VWS V14.01,2013-03-08 21:46:00,
2013-03-08 17:01:00,37.2,23.4,30.46,ESE,107,3.0,9.0,57,0.00,,---,0.00,VWS V14.01,2013-03-08 22:01:00,
2013-03-08 17:16:00,37.2,23.4,30.46,SE,139,4.0,9.0,57,0.00,,---,0.00,VWS V14.01,2013-03-08 22:16:00,
2013-03-08 17:31:00,37.2,23.4,30.46,SE,142,7.0,7.0,57,0.00,,---,0.00,VWS V14.01,2013-03-08 22:31:00,
2013-03-08 17:46:00,36.8,23.0,30.45,SE,130,5.0,10.0,57,0.00,,---,0.00,VWS V14.01,2013-03-08 22:46:00,
2013-03-08 18:01:00,36.6,23.2,30.45,ESE,123,4.0,8.0,58,0.00,,---,0.00,VWS V14.01,2013-03-08 23:01:00,
2013-03-08 18:16:00,36.1,23.6,30.45,SE,131,2.0,6.0,60,0.00,,---,0.00,VWS V14.01,2013-03-08 23:16:00,
2013-03-08 18:31:00,35.4,23.7,30.45,SE,125,1.0,5.0,62,0.00,,---,0.00,VWS V14.01,2013-03-08 23:31:00,
2013-03-08 18:46:00,34.7,23.4,30.45,SE,138,0.0,5.0,63,0.00,,---,0.00,VWS V14.01,2013-03-08 23:46:00,
2013-03-08 19:01:00,34.3,23.4,30.46,SE,138,0.0,4.0,64,0.00,,---,0.00,VWS V14.01,2013-03-09 00:01:00,
2013-03-08 19:16:00,33.9,23.8,30.46,SE,138,0.0,1.0,66,0.00,,---,0.00,VWS V14.01,2013-03-09 00:16:00,
2013-03-08 19:31:00,33.4,23.3,30.46,SE,138,0.0,1.0,66,0.00,,---,0.00,VWS V14.01,2013-03-09 00:31:00,
2013-03-08 19:46:00,32.6,23.9,30.46,SE,138,0.0,0.0,70,0.00,,---,0.00,VWS V14.01,2013-03-09 00:46:00,
2013-03-08 20:01:00,31.8,23.1,30.46,SE,138,0.0,0.0,70,0.00,,---,0.00,VWS V14.01,2013-03-09 01:01:00,
2013-03-08 20:16:00,31.5,23.2,30.45,SE,138,0.0,0.0,71,0.00,,---,0.00,VWS V14.01,2013-03-09 01:16:00,
2013-03-08 20:31:00,31.6,23.3,30.45,SE,138,0.0,1.0,71,0.00,,---,0.00,VWS V14.01,2013-03-09 01:31:00,
2013-03-08 20:46:00,31.0,23.0,30.46,SE,138,0.0,0.0,72,0.00,,---,0.00,VWS V14.01,2013-03-09 01:46:00,
2013-03-08 21:01:00,30.0,23.4,30.46,SE,138,0.0,0.0,76,0.00,,---,0.00,VWS V14.01,2013-03-09 02:01:00,
2013-03-08 21:16:00,29.2,22.9,30.46,SE,138,0.0,0.0,77,0.00,,---,0.00,VWS V14.01,2013-03-09 02:16:00,
2013-03-08 21:31:00,29.2,22.9,30.46,SE,138,0.0,0.0,77,0.00,,---,0.00,VWS V14.01,2013-03-09 02:31:00,
2013-03-08 21:46:00,30.3,23.3,30.45,SE,138,2.0,2.0,75,0.00,,---,0.00,VWS V14.01,2013-03-09 02:46:00,
2013-03-08 22:01:00,31.0,23.4,30.44,SE,138,1.0,4.0,73,0.00,,---,0.00,VWS V14.01,2013-03-09 03:01:00,
2013-03-08 22:16:00,30.6,23.0,30.44,SE,138,0.0,2.0,73,0.00,,---,0.00,VWS V14.01,2013-03-09 03:16:00,
2013-03-08 22:31:00,29.8,22.5,30.45,SE,138,0.0,0.0,74,0.00,,---,0.00,VWS V14.01,2013-03-09 03:31:00,
2013-03-08 22:46:00,29.3,22.4,30.45,SE,138,0.0,2.0,75,0.00,,---,0.00,VWS V14.01,2013-03-09 03:46:00,
2013-03-08 23:01:00,28.9,22.6,30.45,SE,138,0.0,1.0,77,0.00,,---,0.00,VWS V14.01,2013-03-09 04:01:00,
2013-03-08 23:16:00,28.5,22.2,30.45,SE,138,1.0,3.0,77,0.00,,---,0.00,VWS V14.01,2013-03-09 04:16:00,
2013-03-08 23:31:00,29.3,22.4,30.44,SE,138,1.0,3.0,75,0.00,,---,0.00,VWS V14.01,2013-03-09 04:31:00,
2013-03-08 23:46:00,29.4,22.1,30.43,SE,138,0.0,4.0,74,0.00,,---,0.00,VWS V14.01,2013-03-09 04:46:00,